Theta_e
355 362 365 365 364 363 363 362 362 361 360 361 361 361 361 361 362 362 362 362 362 361 359 357 354 352 350 350 351 353 354 355 354 353 354 353 353 354 357 356 353 349 351
357 362 365 364 364 364 363 362 361 360 359 360 361 361 361 361 361 362 362 361 361 359 357 354 351 347 344 343 345 348 351 352 354 354 353 352 351 352 355 353 351 350 351
358 361 363 364 363 363 362 361 360 360 359 360 361 361 361 361 361 361 361 360 358 356 354 350 347 342 339 338 337 339 341 343 346 350 352 347 347 350 352 352 352 350 349
358 360 360 363 362 362 362 360 360 360 360 360 360 361 361 360 360 360 360 359 356 353 350 346 343 339 337 336 334 336 338 340 343 342 334 339 345 348 350 350 350 350 350
356 358 361 364 362 361 361 360 359 360 360 360 360 361 361 360 359 359 360 358 354 351 348 345 341 340 338 337 336 340 342 343 341 338 329 327 328 345 351 350 349 349 349
352 357 363 363 362 361 361 360 360 360 360 360 360 361 360 359 359 359 359 357 355 350 347 344 343 342 339 338 341 342 343 344 345 332 332 335 335 351 354 352 352 350 350
349 355 361 363 362 362 362 360 360 360 360 360 360 360 360 359 358 359 358 356 355 351 347 344 345 345 343 342 342 344 345 344 337 333 334 336 334 350 355 355 353 351 350
348 355 359 363 361 361 361 360 359 359 360 360 360 360 360 359 358 358 357 356 354 352 350 348 347 345 344 344 345 345 345 344 340 337 336 332 341 350 356 354 353 352 349
349 351 357 358 359 361 361 359 359 359 359 359 359 359 359 358 357 357 356 355 354 351 350 349 347 346 345 345 346 346 346 344 336 335 336 331 343 350 354 353 353 353 352
348 349 352 356 357 356 359 360 359 359 359 358 359 359 358 357 357 356 353 353 353 352 350 350 349 348 347 346 346 346 346 345 336 335 331 330 344 351 355 354 353 353 353
347 347 349 353 355 354 354 358 359 361 360 359 359 359 354 350 350 352 351 353 353 352 351 351 350 349 348 347 347 347 345 335 335 334 330 336 345 351 355 355 353 353 353
343 345 346 349 351 353 355 355 356 358 357 356 356 355 351 347 345 349 350 352 353 352 352 351 351 351 349 339 338 343 338 336 335 334 331 342 346 352 356 355 354 353 352
345 345 345 346 349 351 352 352 352 354 354 353 352 350 346 345 345 345 341 344 343 349 342 345 343 342 340 338 336 332 332 335 334 333 333 343 345 353 357 354 354 354 353
344 344 344 344 345 345 350 350 351 350 350 348 349 347 344 339 337 338 337 338 338 340 340 338 337 336 336 336 334 330 328 331 332 331 331 344 347 353 356 355 354 354 353
335 342 342 344 343 341 346 346 348 348 348 347 345 346 344 337 335 336 336 336 338 338 339 336 334 334 333 333 333 331 330 330 332 332 331 344 351 351 353 354 353 352 353
329 338 340 343 343 340 345 342 343 344 346 346 345 345 343 339 336 335 335 338 337 338 338 337 336 334 332 333 333 333 333 333 333 333 333 333 350 349 350 354 354 352 352
324 330 339 342 342 340 344 344 342 340 342 342 343 343 344 341 336 337 338 338 339 340 339 338 336 336 334 336 334 335 335 335 335 334 334 335 339 349 349 351 352 354 354
323 325 330 345 342 342 345 346 345 342 342 342 343 343 344 344 342 336 337 341 340 339 339 337 337 335 333 332 331 331 331 332 334 334 336 335 335 339 345 349 350 351 353
320 322 324 333 336 340 343 347 345 345 341 342 343 344 344 344 345 345 341 340 341 339 337 337 335 332 329 329 332 332 331 331 333 336 336 336 337 338 337 343 348 348 350
319 321 322 328 332 340 341 343 342 341 344 342 343 344 345 345 345 344 344 343 342 339 337 336 334 333 331 330 333 333 331 332 335 337 338 340 339 339 339 338 339 344 347
320 320 322 323 324 332 339 337 336 336 338 341 341 339 348 347 348 347 345 343 342 338 337 336 333 330 328 329 327 326 328 331 336 338 340 339 339 342 341 340 339 338 340
318 319 321 325 325 324 336 338 336 336 337 338 340 341 340 342 348 347 345 343 342 340 336 335 332 329 329 330 325 328 326 328 330 336 337 339 340 342 341 341 339 338 337
317 317 316 317 320 323 326 333 338 337 340 335 335 336 339 339 342 347 347 345 341 342 340 336 334 331 331 328 331 325 324 321 321 325 326 331 335 338 340 339 339 340 338
316 315 315 317 319 319 320 322 327 332 331 335 335 336 338 339 338 339 345 346 344 342 338 336 336 334 331 327 332 335 334 327 321 318 325 333 339 338 337 339 338 340 341
314 312 315 315 315 317 317 319 321 321 326 329 330 331 336 338 339 337 337 340 342 340 338 337 335 334 334 331 331 331 330 324 324 322 319 323 332 335 339 339 339 337 338
311 313 314 315 315 317 318 316 318 319 320 323 323 325 329 336 338 338 338 338 340 340 338 337 336 336 336 336 336 335 325 321 319 319 319 324 328 331 335 337 336 336 336
Wind_Speed
8 12 14 13 16 18 18 18 17 18 18 18 19 19 19 18 19 18 17 16 14 13 12 11 10 9 9 9 10 9 9 10 9 9 9 8 8 9 8 11 10 6 10
16 14 18 16 17 18 18 17 17 17 17 18 17 17 17 18 16 17 16 14 13 12 11 9 8 8 7 8 8 8 8 7 6 7 7 6 5 6 10 10 9 7 8
16 16 15 18 19 19 19 18 16 17 17 17 17 16 16 16 16 16 14 13 13 12 10 9 8 6 6 6 6 5 5 4 4 3 3 3 1 3 7 8 8 8 7
17 13 14 17 18 20 20 19 16 16 17 17 16 16 16 16 15 15 13 13 13 12 10 9 7 6 5 5 4 3 3 4 4 4 2 2 4 5 7 7 7 7 6
14 14 14 17 17 20 21 21 17 16 16 16 16 16 15 15 14 13 13 11 12 12 11 9 7 6 5 3 2 2 3 3 2 1 1 4 5 6 9 8 6 6 5
12 13 19 18 17 18 21 21 20 16 16 15 15 14 14 14 14 13 12 10 9 10 10 9 8 5 3 1 1 3 5 6 7 4 2 5 4 7 10 9 10 8 7
14 13 15 19 16 17 19 20 20 17 16 15 14 14 14 13 12 11 12 10 9 9 9 8 8 6 5 4 2 3 5 7 5 5 5 6 4 9 11 10 10 9 9
17 13 15 20 20 15 17 19 20 19 17 16 16 14 13 13 12 12 11 9 8 7 7 7 7 7 6 5 3 3 5 6 5 4 5 5 4 10 11 10 10 9 9
14 13 13 15 17 18 15 18 19 19 18 16 16 15 13 12 12 11 10 9 8 7 7 6 7 7 6 5 4 6 7 8 5 3 4 3 6 11 11 11 11 11 10
13 12 11 12 14 14 11 17 19 19 18 16 15 14 13 12 11 11 10 9 8 7 7 8 9 8 7 5 7 8 8 11 6 5 4 4 9 13 14 13 13 12 11
10 11 9 12 14 14 11 12 14 18 18 17 15 14 11 5 7 8 9 10 9 9 9 10 11 9 7 6 9 10 11 3 5 3 3 9 10 14 16 14 13 12 11
11 12 9 8 14 15 10 11 11 10 9 8 9 9 6 6 6 7 9 12 12 12 12 13 13 10 7 3 4 8 3 5 4 5 4 11 11 13 15 13 13 12 12
12 10 12 10 8 16 12 9 6 6 7 6 9 8 6 5 5 4 3 4 4 10 5 8 5 3 4 3 5 4 5 5 3 4 7 12 14 13 15 13 14 14 13
14 14 14 14 11 7 8 11 10 8 5 5 7 9 7 4 5 5 4 5 5 4 6 4 3 5 5 6 7 5 6 4 4 4 6 14 16 12 14 15 16 14 14
9 12 13 13 13 9 6 5 10 9 8 7 6 8 7 6 7 5 6 5 5 4 5 4 4 5 5 6 5 6 7 7 7 4 3 12 11 12 14 16 15 15 14
6 12 14 15 13 8 10 8 7 8 9 8 8 8 9 7 6 6 5 6 5 5 5 4 5 4 4 4 5 7 7 6 6 6 4 4 12 13 15 15 15 15 16
8 9 13 15 14 13 13 12 10 10 9 8 8 9 11 9 9 8 6 5 7 5 6 4 5 3 3 4 6 7 6 7 6 6 5 4 5 13 14 15 15 17 17
10 10 9 10 15 17 15 12 9 10 10 10 10 9 12 11 10 9 8 7 5 4 4 3 4 4 4 4 4 5 5 5 7 6 6 5 5 5 9 17 16 17 17
9 9 8 8 7 5 3 6 8 10 10 9 9 10 14 15 12 8 7 7 6 5 5 4 4 4 4 5 5 4 4 4 6 4 8 7 8 6 5 10 16 17 17
9 9 8 7 7 4 3 2 1 2 8 5 6 8 13 10 13 10 6 5 5 4 4 2 4 3 4 4 3 4 4 5 5 7 7 7 6 7 6 7 5 7 16
6 8 8 9 6 3 2 3 2 3 3 4 7 3 8 11 13 11 7 6 5 6 5 5 3 4 4 1 2 3 4 6 8 7 6 7 7 7 6 6 5 4 5
10 8 8 8 8 5 2 1 2 2 2 3 3 8 7 2 7 8 9 7 6 4 5 5 5 2 3 4 2 1 4 4 3 5 5 7 8 5 5 6 6 7 6
10 10 9 8 7 5 5 3 2 2 1 1 4 3 8 11 8 6 9 8 9 7 8 6 6 7 7 2 5 4 2 5 2 3 7 2 4 2 3 5 6 7 7
10 7 8 8 8 5 6 4 3 2 3 4 2 3 4 9 11 5 6 12 10 6 6 6 4 6 4 5 1 7 7 2 4 7 2 4 2 3 5 4 5 7 7
9 8 8 7 6 4 5 5 4 2 3 3 2 5 5 6 7 10 9 10 8 7 5 6 5 5 5 5 7 3 4 2 1 3 9 5 4 3 4 5 6 4 5
8 9 8 9 6 5 5 4 5 4 3 2 2 4 4 5 6 11 11 12 10 9 11 9 8 7 7 7 7 8 5 5 5 4 5 5 5 4 4 4 5 5 5
Wind_Direction
166 154 159 150 136 130 127 122 119 115 113 113 111 112 113 113 111 112 109 109 110 115 118 116 113 106 101 99 98 95 93 92 98 100 97 89 98 95 64 125 101 99 99
147 153 157 153 145 138 131 126 125 121 118 112 110 110 112 109 111 110 111 114 116 117 115 109 103 104 103 98 90 84 83 87 90 102 112 104 89 90 92 99 102 105 102
147 154 155 157 153 144 136 131 131 129 124 121 121 121 120 117 119 117 118 122 124 125 122 119 110 101 96 92 93 96 97 90 79 85 101 107 108 113 110 108 108 105 105
147 152 154 159 157 146 139 136 137 135 132 129 130 131 130 128 127 126 127 132 132 131 129 122 116 108 88 79 69 59 59 64 57 15 8 310 275 165 147 127 123 121 120
151 149 155 157 163 150 145 140 141 141 137 137 139 138 137 134 135 133 133 140 140 140 135 131 124 112 105 88 46 11 14 18 19 342 292 267 245 207 167 146 147 140 146
156 156 154 156 165 157 150 144 143 145 141 141 141 141 143 142 143 141 138 144 146 143 140 138 134 137 139 151 299 342 342 347 345 338 330 314 176 192 168 159 172 156 139
156 158 151 153 163 163 155 148 144 144 143 145 145 149 149 146 145 144 143 148 154 153 151 152 151 161 172 202 252 315 331 335 338 333 343 337 225 211 180 168 155 160 156
155 158 150 152 165 167 159 152 146 146 150 151 151 153 153 152 154 152 150 151 160 162 160 165 175 180 195 220 246 294 305 304 312 317 321 306 243 207 199 177 170 168 165
151 153 152 151 162 169 163 156 151 150 153 156 154 154 157 160 161 158 157 158 170 179 179 188 198 206 210 236 264 271 282 293 295 286 288 282 282 218 217 193 183 179 177
147 152 152 147 151 167 167 163 157 155 156 156 156 157 159 163 166 163 164 170 179 195 200 208 219 217 219 233 257 269 278 285 292 292 283 265 279 215 219 213 198 187 185
141 145 152 155 151 158 167 171 162 159 158 158 160 162 160 162 167 173 178 183 188 201 215 224 228 221 218 232 250 256 269 269 272 269 260 267 261 233 221 218 212 199 196
157 152 149 169 156 148 160 170 173 168 160 162 162 167 169 172 171 179 191 197 200 206 218 229 230 228 220 205 261 270 262 260 266 272 279 283 273 252 228 215 223 213 208
164 159 159 162 188 156 153 159 175 174 170 166 167 166 172 177 188 186 193 205 207 215 218 232 241 214 190 195 245 237 254 256 251 263 270 270 274 254 216 210 219 219 216
166 167 169 166 173 204 162 161 168 174 172 178 181 176 171 178 187 199 200 208 205 211 220 219 215 207 196 207 237 247 244 241 245 249 260 273 273 225 214 214 219 220 219
157 165 172 169 176 168 179 179 163 173 180 182 184 192 181 182 193 188 204 201 209 199 216 201 224 227 214 213 217 217 242 241 240 239 243 269 249 218 219 224 224 226 224
155 172 164 173 176 171 168 170 181 171 179 183 188 199 197 189 191 197 207 212 216 206 214 187 210 229 225 207 238 245 240 235 236 238 229 232 234 226 230 231 229 227 227
172 161 176 172 165 176 184 183 179 173 169 180 195 195 200 194 200 192 199 213 217 205 218 189 218 228 214 233 235 234 242 247 246 249 254 231 210 228 237 234 236 232 228
151 166 155 177 187 180 181 187 194 183 176 184 188 190 199 212 205 198 204 207 203 208 191 194 227 241 238 210 236 236 241 241 251 241 247 238 223 199 229 239 237 238 232
169 152 145 125 123 187 188 186 186 180 177 187 190 192 197 199 201 207 212 214 194 205 202 193 205 189 201 222 234 252 261 262 265 257 239 230 229 203 203 230 235 237 236
153 143 130 115 113 110 122 77 249 219 168 156 184 217 193 204 211 196 205 202 180 207 232 195 235 236 215 210 236 274 270 258 254 253 253 247 223 212 202 209 224 236 236
134 132 137 130 132 116 117 145 169 230 253 205 140 199 243 191 208 191 209 196 199 191 199 199 202 228 265 213 30 307 269 250 254 250 244 238 214 215 203 205 211 233 237
156 144 133 135 139 130 137 158 148 166 209 277 194 149 222 215 233 184 201 197 203 180 181 208 178 225 265 184 170 356 302 336 269 242 260 233 194 171 218 221 207 213 230
161 164 154 147 136 130 127 128 124 94 357 96 252 199 189 183 220 215 208 186 218 199 213 191 191 184 256 242 216 175 262 233 329 246 257 246 337 142 199 237 228 223 218
172 152 150 151 149 157 140 115 145 175 198 214 238 290 188 180 171 215 235 217 182 213 221 207 191 216 166 248 237 244 276 150 192 316 309 333 351 257 218 222 231 231 224
137 153 157 153 154 159 150 146 154 196 232 291 276 243 249 239 203 180 202 254 191 194 217 218 204 198 191 183 216 232 255 303 144 193 286 300 315 275 248 212 221 221 217
149 156 158 157 167 166 160 167 179 202 241 283 272 286 243 243 214 218 204 205 216 213 195 214 199 207 205 201 230 227 199 202 195 189 224 258 247 267 264 237 214 215 221